Regional Weather Roundup
Issued by NWS Northern Indiana

Home | Current Version | Previous Version | Graphics & Text | Print | Product List | Glossary On
Versions: 1 2 3 4 5 6 7 8 9 10 11 12 13 14 15 16 17 18 19 20 21 22 23 24 25 26 27 28 29 30 31 32 33 34 35 36 37 38 39 40 41 42 43 44 45 46 47 48 49 50
211
ASUS43 KIWX 221810
RWRIWX

KIWX WEATHER ROUNDUP
NATIONAL WEATHER SERVICE NORTHERN INDIANA
200 PM EDT SUN OCT 22 2017

NOTE: "FAIR" INDICATES FEW OR NO CLOUDS BELOW 12,000 FEET WITH NO
SIGNIFICANT WEATHER AND/OR OBSTRUCTIONS TO VISIBILITY.

* THESE STATIONS ARE NOT UNDER NWS QUALITY CONTROL. THEY ALSO MAY NOT
  REPORT WEATHER SUCH AS PRECIPITATION OR FOG.

INZ001>027-221900-
NORTHERN INDIANA

CITY           SKY/WX    TMP DP  RH WIND       PRES   REMARKS
GARY*          CLOUDY    72  61  68 S14       29.94F
VALPARAISO     PTSUNNY   74  60  61 S18G24    29.97F
6HR MIN TEMP:  64; 6HR MAX TEMP:  75;

LAPORTE*       CLOUDY    71  58  64 S14G25    29.99F
6HR MIN TEMP:  61; 6HR MAX TEMP:  71;

KNOX*          CLOUDY    72  59  64 S21G30    29.99F
SOUTH BEND     CLOUDY    71  59  65 S17G26    30.00F
6HR MIN TEMP:  60; 6HR MAX TEMP:  71;

GOSHEN         MOSUNNY   73  55  53 S18G29    30.02F
6HR MIN TEMP:  58; 6HR MAX TEMP:  75;

MONTICELLO*    CLOUDY    72  57  60 S12       29.99F
6HR MIN TEMP:  60; 6HR MAX TEMP:  72;

LOGANSPORT*    PTSUNNY   73  57  56 S20G28    30.02F
WARSAW*        PTSUNNY   72  57  60 S6        30.03F
AUBURN*        SUNNY     77  54  44 S7G17     30.07F
FORT WAYNE     PTSUNNY   76  56  49 S22G28    30.06F
6HR MIN TEMP:  55; 6HR MAX TEMP:  77;

HUNTINGTON*    MOSUNNY   74  56  51 SW15G22   30.05F
6HR MIN TEMP:  58; 6HR MAX TEMP:  74;

PERU/GRISSOM   CLOUDY    73  58  57 S15       30.02F
6HR MIN TEMP:  58; 6HR MAX TEMP:  73;


$$
INZ028>050-221900-
CENTRAL INDIANA

CITY           SKY/WX    TMP DP  RH WIND       PRES   REMARKS
LAFAYETTE      CLOUDY    72  59  63 S10G24    29.98F
6HR MIN TEMP:  61; 6HR MAX TEMP:  72;

KOKOMO*        CLOUDY    74  58  57 S21G31    30.04F
6HR MIN TEMP:  58; 6HR MAX TEMP:  75;

MUNCIE*        SUNNY     78  55  44 S12G22    30.07F
6HR MIN TEMP:  60; 6HR MAX TEMP:  78;

INDIANAPOLIS   PTSUNNY   78  59  51 S17       30.04F
6HR MIN TEMP:  57; 6HR MAX TEMP:  78;


$$
MIZ043>046-050>051-056>058-064>065-071>073-077>080-221900-
SOUTHWEST LOWER MICHIGAN

CITY           SKY/WX    TMP DP  RH WIND       PRES   REMARKS
BATTLE CREEK   MOSUNNY   74  59  59 S16G25    30.03F
6HR MIN TEMP:  59; 6HR MAX TEMP:  75;

BENTON HARBOR  PTSUNNY   72  57  59 S16G24    29.98F
6HR MIN TEMP:  62; 6HR MAX TEMP:  73;

COLDWATER*     PTSUNNY   75  55  48 S10G20    30.05F
6HR MIN TEMP:  56; 6HR MAX TEMP:  76;

HILLSDALE*     SUNNY     73  54  49 S16G24    30.07F
HOLLAND        MOSUNNY   73  59  61 S21G28    29.98F
6HR MIN TEMP:  62; 6HR MAX TEMP:  75;

GRAND RAPIDS   PTSUNNY   75  60  59 S20G26    29.99F
6HR MIN TEMP:  61; 6HR MAX TEMP:  75;

KALAMAZOO      CLOUDY    73  58  59 S17       30.02F
6HR MIN TEMP:  60; 6HR MAX TEMP:  74;

STURGIS*       PTSUNNY   73  58  59 S16G30    30.03F
6HR MIN TEMP:  58; 6HR MAX TEMP:  73;

THREE RIVERS*  FAIR      74  58  55 S16G24    30.03F
6HR MIN TEMP:  61; 6HR MAX TEMP:  76;


$$
OHZ001>008-015>018-024>025-221900-
NORTHWEST OHIO

CITY           SKY/WX    TMP DP  RH WIND       PRES   REMARKS
WAUSEON*       FAIR      79  55  44 S18       30.08F
DEFIANCE       SUNNY     76  53  44 S15G24    30.08F
6HR MIN TEMP:  55; 6HR MAX TEMP:  77;

FINDLAY        SUNNY     78  53  41 S21       30.11F
6HR MIN TEMP:  53; 6HR MAX TEMP:  78;

TOLEDO EXPRESS SUNNY     78  58  49 S10G20    30.09F
6HR MIN TEMP:  54; 6HR MAX TEMP:  78;

TOLEDO METCALF SUNNY     77  56  48 S21G28    30.11F
6HR MIN TEMP:  54; 6HR MAX TEMP:  77;

LIMA           SUNNY     75  55  49 S14       30.12F
6HR MIN TEMP:  56; 6HR MAX TEMP:  76;


$$
AND FOR LAKE MICHIGAN COASTAL AND OPEN LAKE BUOY OBSERVATIONS

STATION/POSITION TEMP    WIND        PRES    VSBY  WAVE
                 AIR SEA DIR/SP/G                  HT/PER
                 (F)     (DEG/KT/KT) (MB)    (MI)  (FT/S)
CALUMET HARBOR    69     160/ 10/ 15 1013.0F
MICHIGAN CITY     70     160/ 17/ 22   N/A
BURNS HARBOR      71     180/ 15/ 25 1014.6F
SAINT JOSEPH      71     200/  9/ 15 1014.9
SOUTH LAKE BUOY   63 61  160/ 17/ 19 1013.5F         3/ 5
4 MI NW BRIDGMAN  67 60  190/ 14/ 19 1014.8          3/ 4
MICHIGAN CITY     67 58  180/ 14/ 19   N/A           2/ 2

$$
&&




USA.gov is the U.S. government's official web portal to all federal, state and local government web resources and services.